Tracking 28096 objects as of 27-Sep-2023
HD Live streaming from Space Station
objects crossing your sky now

ATLAS 5 CENTAUR R/B

Track ATLAS 5 CENTAUR R/B now!


NORAD ID: 40295
Int'l Code: 2014-068B
Perigee: 20,643.6 km
Apogee: 21,336.2 km
Inclination: 56.4 °
Period: 750.7 minutes
Semi major axis: 27360 km
RCS: Unknown
Launch date: October 29, 2014
Source: United States (US)
Launch site: AIR FORCE EASTERN TEST RANGE (AFETR)

Note: This is a ROCKET BODY
Your satellite tracking list
Your tracking list is empty




NASA's NSSDC Master Catalog

Two Line Element Set (TLE):
1 40295U 14068B   23269.88809778  .00000033  00000-0  00000-0 0  9992
2 40295  56.4067  81.6936 0126566 338.0514  21.4540  1.91825627 62446
Source of the keplerian elements: AFSPC